Torna al catalogo

STARLINK-32907

AttivoComunicazioniVLEO
NORAD 63095·PAYLOAD·🇺🇸 United States

Lanciato Feb 23, 2025 da Vandenberg Space Force Base

Loading…

Prossimi Passaggi (prossime 24 ore)

TLE

AggiornatoSource: CelesTrak SupGP

Epoca: Sep 14, 2026, 21:10 UTC

1 63095C 25037U   26257.88243056  .00054250  00000+0  18869-2 0  2574
2 63095  70.0002 235.8225 0002980 263.8361  23.3710 15.29557760    13

Traccia STARLINK-32907 in tempo reale con AllMySat

Download on the App Store